• In Hungary
  • List of Countries
  • For 7 days
  • Water Temperature
  • Satellite Maps
  • Weather Map
  • News
  • Weather Widgets
  • user-avatar
    Login

    Hourly Weather Takovaya

    Today, 19 September, Wednesday

    Time Temperature Precipitation Wind Pressure Humidity
    00:00 +8°C° 0 mm 2 mps 748 mmHg 88%
    01:00 +9°C° 0 mm 2 mps 748 mmHg 88%
    02:00 +9°C° 0 mm 2 mps 748 mmHg 89%
    03:00 +9°C° 0.3 mm 2 mps 748 mmHg 91%
    04:00 +9°C° 0.3 mm 2 mps 747 mmHg 92%
    05:00 +10°C° 0.3 mm 2 mps 747 mmHg 93%
    06:00 +10°C° 0.1 mm 3 mps 747 mmHg 92%
    07:00 +11°C° 0.1 mm 3 mps 747 mmHg 90%
    08:00 +12°C° 0 mm 4 mps 747 mmHg 88%
    09:00 +14°C° 0 mm 4 mps 747 mmHg 83%
    10:00 +17°C° 0 mm 4 mps 747 mmHg 77%
    11:00 +19°C° 0 mm 4 mps 747 mmHg 72%
    12:00 +20°C° 0 mm 4 mps 746 mmHg 66%
    13:00 +21°C° 0 mm 4 mps 746 mmHg 61%
    14:00 +22°C° 0 mm 4 mps 746 mmHg 55%
    15:00 +21°C° 0 mm 4 mps 746 mmHg 60%
    16:00 +20°C° 0 mm 3 mps 746 mmHg 65%
    17:00 +19°C° 0 mm 3 mps 746 mmHg 70%
    18:00 +18°C° 0 mm 3 mps 746 mmHg 74%
    19:00 +17°C° 0 mm 3 mps 746 mmHg 79%
    20:00 +16°C° 0 mm 3 mps 746 mmHg 83%
    21:00 +14°C° 0 mm 3 mps 746 mmHg 86%
    22:00 +14°C° 0 mm 3 mps 746 mmHg 89%
    23:00 +14°C° 0 mm 3 mps 745 mmHg 92%

    Tomorrow, 20 September, Thursday

    Time Temperature Precipitation Wind Pressure Humidity
    00:00 +13°C° 0 mm 3 mps 745 mmHg 93%
    01:00 +13°C° 0 mm 3 mps 745 mmHg 94%
    02:00 +13°C° 0 mm 3 mps 745 mmHg 95%
    03:00 +13°C° 0 mm 3 mps 745 mmHg 96%
    04:00 +13°C° 0 mm 3 mps 745 mmHg 96%
    05:00 +13°C° 0 mm 3 mps 746 mmHg 97%
    06:00 +14°C° 0 mm 3 mps 746 mmHg 94%
    07:00 +14°C° 0 mm 4 mps 746 mmHg 91%
    08:00 +15°C° 0 mm 4 mps 747 mmHg 88%
    09:00 +15°C° 0 mm 4 mps 747 mmHg 85%
    10:00 +15°C° 0 mm 4 mps 747 mmHg 82%
    11:00 +17°C° 0 mm 3 mps 748 mmHg 80%
    12:00 +18°C° 0 mm 3 mps 748 mmHg 75%
    13:00 +19°C° 0 mm 3 mps 748 mmHg 71%
    14:00 +20°C° 0 mm 3 mps 748 mmHg 67%
    15:00 +19°C° 0 mm 3 mps 748 mmHg 71%
    16:00 +19°C° 0 mm 2 mps 748 mmHg 76%
    17:00 +19°C° 0 mm 1 mps 748 mmHg 80%
    18:00 +18°C° 0 mm 1 mps 748 mmHg 84%
    19:00 +16°C° 0 mm 2 mps 749 mmHg 88%
    20:00 +15°C° 0 mm 2 mps 749 mmHg 91%
    21:00 +15°C° 0 mm 2 mps 749 mmHg 92%
    22:00 +14°C° 0 mm 2 mps 749 mmHg 93%
    23:00 +14°C° 0 mm 2 mps 749 mmHg 94%

    Day after tomorrow, 21 September, Friday

    Time Temperature Precipitation Wind Pressure Humidity
    00:00 +14°C° 0 mm 2 mps 749 mmHg 94%
    01:00 +14°C° 0 mm 2 mps 749 mmHg 95%
    02:00 +13°C° 0 mm 2 mps 750 mmHg 95%
    03:00 +13°C° 0 mm 2 mps 750 mmHg 95%
    04:00 +13°C° 0 mm 2 mps 750 mmHg 96%
    05:00 +13°C° 0 mm 2 mps 750 mmHg 96%
    06:00 +14°C° 0 mm 2 mps 750 mmHg 91%
    07:00 +16°C° 0 mm 2 mps 751 mmHg 87%
    08:00 +17°C° 0 mm 2 mps 751 mmHg 83%
    09:00 +19°C° 0 mm 2 mps 751 mmHg 78%
    10:00 +20°C° 0 mm 2 mps 751 mmHg 72%
    11:00 +23°C° 0 mm 2 mps 751 mmHg 67%
    12:00 +24°C° 0 mm 2 mps 751 mmHg 66%
    13:00 +24°C° 0 mm 3 mps 751 mmHg 64%
    14:00 +25°C° 0 mm 3 mps 751 mmHg 63%
    15:00 +24°C° 0 mm 2 mps 751 mmHg 69%
    16:00 +21°C° 0 mm 2 mps 751 mmHg 74%
    17:00 +20°C° 0 mm 2 mps 750 mmHg 80%
    18:00 +19°C° 0 mm 2 mps 751 mmHg 84%
    19:00 +18°C° 0 mm 2 mps 751 mmHg 88%
    20:00 +17°C° 0 mm 2 mps 751 mmHg 92%
    21:00 +17°C° 0 mm 2 mps 750 mmHg 93%
    22:00 +17°C° 0 mm 2 mps 750 mmHg 93%
    23:00 +17°C° 0 mm 2 mps 750 mmHg 94%

    22 September, Saturday

    Time Temperature Precipitation Wind Pressure Humidity
    00:00 +16°C° 0 mm 3 mps 750 mmHg 94%
    01:00 +16°C° 0 mm 3 mps 750 mmHg 94%
    02:00 +16°C° 0 mm 3 mps 750 mmHg 94%
    03:00 +16°C° 0 mm 3 mps 749 mmHg 94%
    04:00 +16°C° 0 mm 3 mps 749 mmHg 95%
    05:00 +16°C° 0 mm 3 mps 749 mmHg 95%
    06:00 +17°C° 0 mm 4 mps 748 mmHg 90%
    07:00 +18°C° 0 mm 4 mps 748 mmHg 84%
    08:00 +19°C° 0 mm 5 mps 748 mmHg 79%
    09:00 +21°C° 0 mm 5 mps 747 mmHg 71%
    10:00 +22°C° 0 mm 6 mps 747 mmHg 63%
    11:00 +24°C° 0 mm 6 mps 747 mmHg 56%
    12:00 +24°C° 0 mm 6 mps 746 mmHg 54%
    13:00 +24°C° 0 mm 6 mps 746 mmHg 52%
    14:00 +24°C° 0 mm 6 mps 745 mmHg 51%
    15:00 +23°C° 0 mm 5 mps 745 mmHg 55%
    16:00 +22°C° 0 mm 5 mps 745 mmHg 60%
    17:00 +21°C° 0 mm 4 mps 745 mmHg 65%
    18:00 +20°C° 0 mm 4 mps 746 mmHg 70%
    19:00 +19°C° 0 mm 3 mps 746 mmHg 75%
    20:00 +17°C° 0 mm 3 mps 746 mmHg 80%
    21:00 +16°C° 0 mm 2 mps 746 mmHg 83%
    22:00 +16°C° 0 mm 2 mps 745 mmHg 87%
    23:00 +15°C° 0 mm 1 mps 745 mmHg 90%

    23 September, Sunday

    Time Temperature Precipitation Wind Pressure Humidity
    00:00 +14°C° 0 mm 1 mps 745 mmHg 90%
    01:00 +14°C° 0 mm 1 mps 745 mmHg 90%
    02:00 +14°C° 0 mm 1 mps 744 mmHg 90%
    03:00 +14°C° 0.1 mm 1 mps 744 mmHg 90%
    04:00 +14°C° 0.1 mm 1 mps 743 mmHg 89%
    05:00 +14°C° 0.1 mm 1 mps 743 mmHg 89%
    06:00 +14°C° 0.3 mm 2 mps 743 mmHg 88%
    07:00 +14°C° 0.3 mm 2 mps 742 mmHg 87%
    08:00 +15°C° 0.3 mm 2 mps 742 mmHg 86%
    09:00 +15°C° 0.2 mm 2 mps 742 mmHg 86%
    10:00 +13°C° 0.2 mm 3 mps 742 mmHg 86%
    11:00 +13°C° 0.2 mm 3 mps 742 mmHg 85%
    12:00 +12°C° 0.7 mm 3 mps 741 mmHg 87%
    13:00 +11°C° 0.7 mm 4 mps 741 mmHg 89%
    14:00 +10°C° 0.7 mm 4 mps 741 mmHg 91%
    15:00 +10°C° 2.1 mm 4 mps 741 mmHg 92%
    16:00 +9°C° 2.1 mm 3 mps 742 mmHg 92%
    17:00 +9°C° 2.1 mm 3 mps 742 mmHg 93%
    18:00 +9°C° 0.6 mm 3 mps 742 mmHg 94%
    19:00 +9°C° 0.6 mm 3 mps 743 mmHg 94%
    20:00 +9°C° 0.6 mm 3 mps 743 mmHg 94%
    21:00 +9°C° 0 mm 3 mps 743 mmHg 94%
    22:00 +9°C° 0 mm 2 mps 744 mmHg 95%
    23:00 +8°C° 0 mm 2 mps 744 mmHg 95%

    24 September, Monday

    Time Temperature Precipitation Wind Pressure Humidity
    00:00 +8°C° 0 mm 2 mps 744 mmHg 96%
    01:00 +7°C° 0 mm 2 mps 745 mmHg 96%
    02:00 +7°C° 0 mm 2 mps 745 mmHg 96%
    03:00 +6°C° 0 mm 2 mps 745 mmHg 96%
    04:00 +6°C° 0 mm 2 mps 746 mmHg 96%
    05:00 +6°C° 0 mm 2 mps 746 mmHg 96%
    06:00 +7°C° 0 mm 2 mps 746 mmHg 93%
    07:00 +8°C° 0 mm 2 mps 747 mmHg 89%
    08:00 +9°C° 0 mm 2 mps 747 mmHg 86%
    09:00 +10°C° 0 mm 2 mps 748 mmHg 79%
    10:00 +12°C° 0 mm 2 mps 748 mmHg 73%
    11:00 +14°C° 0 mm 2 mps 748 mmHg 66%
    12:00 +14°C° 0 mm 2 mps 748 mmHg 63%
    13:00 +15°C° 0 mm 2 mps 748 mmHg 60%
    14:00 +15°C° 0 mm 2 mps 748 mmHg 57%
    15:00 +14°C° 0 mm 2 mps 748 mmHg 62%
    16:00 +13°C° 0 mm 2 mps 748 mmHg 67%
    17:00 +12°C° 0 mm 1 mps 748 mmHg 73%
    18:00 +12°C° 0 mm 2 mps 748 mmHg 72%
    19:00 +12°C° 0 mm 2 mps 748 mmHg 72%
    20:00 +12°C° 0 mm 2 mps 748 mmHg 71%
    21:00 +11°C° 0 mm 3 mps 748 mmHg 70%
    22:00 +11°C° 0 mm 3 mps 748 mmHg 69%
    23:00 +11°C° 0 mm 4 mps 748 mmHg 68%
    Show more